Middlesboro, KY

2:55 AM CDT on May 28, 2017 (GMT -0500)
Middlesboro

Weather History for K1A6 - March, 2013

Change the Weather History Date:

Tuesday, March 12, 2013

  Actual Average (KLOZ) Record (KLOZ)
Temperature  
Mean Temperature 42 °F -  
Max Temperature 50 °F 59 °F 82 °F (1990)
Min Temperature 33 °F 36 °F 6 °F (1960)
Degree Days  
Heating Degree Days 24    
Moisture  
Dew Point 31 °F    
Average Humidity 70    
Maximum Humidity 92    
Minimum Humidity 46    
Precipitation  
Precipitation 0.04 in - - ()
Sea Level Pressure  
Sea Level Pressure 30.01 in    
Wind  
Wind Speed 5 mph (NW)    
Max Wind Speed 13 mph    
Max Gust Speed 17 mph    
Visibility 10 miles    
Events      
Averages and records for this station are not official NWS values.
T = Trace of Precipitation, MM = Missing Value Source: NWS Daily Summary

Daily Weather History Graph

Daily Weather History Graph

Search for Another Location

Airport or City:

Trip Planner

Search our weather history database for the weather conditions in past years. The results will help you decide how hot, cold, wet, or windy it might be!

Date:

Astronomy

Mar. 12, 2013 Rise Set
Actual Time 6:49 AM CDT 6:39 PM CDT
Civil Twilight 6:24 AM CDT 7:05 PM CDT
Nautical Twilight 5:54 AM CDT 7:35 PM CDT
Astronomical Twilight 5:24 AM CDT 8:05 PM CDT
Moon 6:58 AM CDT (3/12) 7:50 PM CDT (3/12)
Length of Visible Light 12h 41m
Length of Day
11h 50m
New Moon, 1% of the Moon is Illuminated
Mar 12
New Moon
Mar 19
First Quarter
Mar 27
Full
Apr 2
Last Quarter
Apr 10
New

Hourly Weather History & Observations

Time (CDT) Temp. Windchill Dew Point Humidity Pressure Visibility Wind Dir Wind Speed Gust Speed Precip Events Conditions
12:15 AM 41.0 °F 35.8 °F 34.9 °F 79% 29.91 in 10.0 mi NNW 8.1 mph - N/A   Overcast
12:35 AM 41.0 °F 38.0 °F 34.5 °F 78% 29.91 in 10.0 mi NW 4.6 mph - N/A   Overcast
12:55 AM 41.0 °F 38.0 °F 34.0 °F 76% 29.92 in 10.0 mi NW 4.6 mph - N/A   Overcast
1:15 AM 40.6 °F 36.0 °F 33.6 °F 76% 29.92 in 10.0 mi North 6.9 mph - N/A   Overcast
1:35 AM 40.5 °F 36.5 °F 33.6 °F 77% 29.92 in 10.0 mi NW 5.8 mph - N/A   Overcast
1:55 AM 40.5 °F 36.5 °F 33.6 °F 77% 29.92 in 10.0 mi NW 5.8 mph - N/A   Overcast
2:15 AM 40.5 °F 35.8 °F 33.3 °F 75% 29.92 in 10.0 mi NNW 6.9 mph - N/A   Overcast
2:35 AM 40.1 °F 33.6 °F 32.7 °F 75% 29.92 in 10.0 mi NNW 10.4 mph - N/A   Overcast
2:55 AM 39.7 °F 36.5 °F 32.4 °F 75% 29.92 in 10.0 mi NNW 4.6 mph - N/A   Overcast
3:15 AM 39.6 °F 34.0 °F 32.0 °F 74% 29.93 in 10.0 mi NW 8.1 mph - N/A   Overcast
3:35 AM 39.2 °F 33.6 °F 31.8 °F 75% 29.93 in 10.0 mi NNW 8.1 mph 17.3 mph N/A   Overcast
3:55 AM 39.0 °F 31.4 °F 31.6 °F 75% 29.93 in 10.0 mi NW 12.7 mph - N/A   Overcast
4:15 AM 38.7 °F 34.3 °F 31.1 °F 74% 29.93 in 10.0 mi NW 5.8 mph - N/A   Overcast
4:35 AM 38.3 °F 33.9 °F 30.7 °F 74% 29.94 in 10.0 mi NNW 5.8 mph - N/A   Overcast
4:55 AM 38.5 °F 32.7 °F 30.7 °F 74% 29.95 in 10.0 mi NNW 8.1 mph - N/A   Overcast
5:15 AM 38.3 °F 34.8 °F 31.1 °F 75% 29.95 in 10.0 mi NNW 4.6 mph - N/A   Overcast
5:35 AM 38.3 °F 32.5 °F 31.1 °F 75% 29.97 in 10.0 mi NW 8.1 mph - N/A   Overcast
5:55 AM 37.6 °F 34.0 °F 31.8 °F 80% 29.97 in 10.0 mi WNW 4.6 mph - N/A   Overcast
6:15 AM 37.4 °F - 32.0 °F 81% 29.98 in 10.0 mi Calm Calm - N/A   Overcast
6:35 AM 37.4 °F 33.8 °F 32.0 °F 81% 30.00 in 10.0 mi WNW 4.6 mph - N/A   Overcast
6:55 AM 37.4 °F - 30.7 °F 77% 29.99 in 10.0 mi Calm Calm - N/A   Overcast
7:15 AM 37.6 °F - 31.1 °F 77% 30.00 in 10.0 mi Calm Calm - N/A   Overcast
7:35 AM 37.8 °F - 31.6 °F 79% 30.00 in 10.0 mi Calm Calm - N/A   Overcast
7:55 AM 37.8 °F 35.3 °F 30.4 °F 75% 30.00 in 10.0 mi NW 3.5 mph - N/A   Overcast
8:15 AM 37.4 °F - 32.0 °F 81% 30.02 in 10.0 mi Calm Calm - N/A   Overcast
8:55 AM 36.7 °F 32.0 °F 33.4 °F 88% 30.02 in 10.0 mi NNE 5.8 mph - N/A   Drizzle
9:15 AM 36.9 °F 30.7 °F 33.1 °F 86% 30.03 in 10.0 mi NNW 8.1 mph - N/A   Overcast
9:35 AM 37.9 °F 34.4 °F 30.7 °F 75% 30.03 in 10.0 mi NW 4.6 mph - N/A   Overcast
9:55 AM 37.6 °F 33.1 °F 30.0 °F 74% 30.03 in 10.0 mi NW 5.8 mph - N/A   Overcast
10:15 AM 37.8 °F 34.2 °F 30.9 °F 76% 30.04 in 10.0 mi WNW 4.6 mph - N/A   Overcast
10:35 AM 38.5 °F 33.4 °F 30.6 °F 73% 30.05 in 10.0 mi WNW 6.9 mph - N/A   Overcast
10:55 AM 38.5 °F 32.7 °F 30.6 °F 73% 30.08 in 10.0 mi WNW 8.1 mph - N/A   Overcast
11:15 AM 38.5 °F 33.4 °F 30.0 °F 72% 30.07 in 10.0 mi NW 6.9 mph - N/A   Overcast
11:55 AM 39.7 °F 33.7 °F 30.4 °F 69% 30.06 in 10.0 mi NNW 9.2 mph - N/A   Overcast
12:15 PM 39.7 °F 34.9 °F 30.9 °F 71% 30.07 in 10.0 mi WNW 6.9 mph - N/A   Overcast
12:35 PM 40.6 °F - 30.2 °F 66% 30.06 in 10.0 mi Calm Calm - N/A   Overcast
12:55 PM 41.9 °F 37.5 °F 30.6 °F 64% 30.06 in 10.0 mi NW 6.9 mph - N/A   Overcast
1:15 PM 41.7 °F 39.8 °F 29.5 °F 62% 30.05 in 10.0 mi NW 3.5 mph - N/A   Mostly Cloudy
1:35 PM 43.9 °F 41.3 °F 29.8 °F 58% 30.05 in 10.0 mi SSW 4.6 mph - N/A   Mostly Cloudy
1:55 PM 43.7 °F - 29.8 °F 58% 30.03 in 10.0 mi Calm Calm - N/A   Scattered Clouds
2:15 PM 46.2 °F 45.0 °F 31.3 °F 56% 30.03 in 10.0 mi NNE 3.5 mph - N/A   Clear
2:35 PM 47.5 °F - 31.1 °F 53% 30.02 in 10.0 mi West 3.5 mph - N/A   Scattered Clouds
2:55 PM 48.0 °F - 31.1 °F 52% 30.02 in 10.0 mi Calm Calm - N/A   Scattered Clouds
3:15 PM 49.6 °F - 30.7 °F 48% 30.02 in 10.0 mi West 9.2 mph - N/A   Clear
3:35 PM 50.2 °F - 31.3 °F 48% 30.02 in 10.0 mi West 9.2 mph - N/A   Clear
3:55 PM 50.0 °F - 31.3 °F 49% 30.02 in 10.0 mi West 4.6 mph - N/A   Clear
4:15 PM 50.2 °F - 30.9 °F 48% 30.02 in 10.0 mi West 4.6 mph - N/A   Scattered Clouds
4:35 PM 50.2 °F - 30.4 °F 47% 30.02 in 10.0 mi West 4.6 mph - N/A   Clear
4:55 PM 50.2 °F - 30.4 °F 47% 30.02 in 10.0 mi North 5.8 mph - N/A   Scattered Clouds
5:15 PM 49.6 °F - 30.4 °F 48% 30.02 in 10.0 mi West 3.5 mph - N/A   Scattered Clouds
5:35 PM 50.0 °F - 30.0 °F 46% 30.02 in 10.0 mi NNW 4.6 mph - N/A   Clear
5:55 PM 49.3 °F - 30.2 °F 48% 30.02 in 10.0 mi Calm Calm - N/A   Scattered Clouds
6:15 PM 48.4 °F - 29.3 °F 48% 30.02 in 10.0 mi Calm Calm - N/A   Scattered Clouds
6:35 PM 47.5 °F - 29.1 °F 49% 30.03 in 10.0 mi Calm Calm - N/A   Clear
6:55 PM 46.4 °F - 29.5 °F 52% 30.04 in 10.0 mi Calm Calm - N/A   Clear
7:15 PM 43.7 °F - 31.5 °F 62% 30.03 in 10.0 mi Calm Calm - N/A   Clear
7:35 PM 41.4 °F - 32.2 °F 70% 30.05 in 10.0 mi Calm Calm - N/A   Clear
7:55 PM 41.0 °F - 32.0 °F 70% 30.05 in 10.0 mi Calm Calm - N/A   Clear
8:15 PM 39.2 °F - 32.5 °F 77% 30.06 in 10.0 mi Calm Calm - N/A   Clear
8:35 PM 38.7 °F - 32.0 °F 77% 30.07 in 10.0 mi Calm Calm - N/A   Clear
8:55 PM 37.9 °F - 32.0 °F 79% 30.07 in 10.0 mi Calm Calm - N/A   Clear
9:15 PM 35.8 °F - 32.0 °F 86% 30.07 in 10.0 mi Calm Calm - N/A   Clear
9:35 PM 35.1 °F - 31.8 °F 88% 30.07 in 10.0 mi Calm Calm - N/A   Clear
9:55 PM 34.9 °F - 32.0 °F 89% 30.08 in 10.0 mi Calm Calm - N/A   Clear
10:15 PM 33.8 °F - 31.6 °F 92% 30.09 in 10.0 mi Calm Calm - N/A   Clear
10:35 PM 33.8 °F - 31.3 °F 90% 30.09 in 10.0 mi Calm Calm - N/A   Clear
10:55 PM 37.0 °F 32.4 °F 30.4 °F 77% 30.09 in 10.0 mi WNW 5.8 mph - N/A   Clear
11:15 PM 41.4 °F 36.2 °F 28.8 °F 61% 30.10 in 10.0 mi WNW 8.1 mph - N/A   Clear
11:35 PM 39.4 °F 36.1 °F 29.1 °F 67% 30.10 in 10.0 mi WNW 4.6 mph - N/A   Clear
11:55 PM 37.8 °F 35.3 °F 28.9 °F 71% 30.09 in 10.0 mi NW 3.5 mph - N/A   Clear